Location: Newark
(39.7092°N, 111.8314°W)
Time: 18:48:01
(UTC+00:00)

Envisat - Visible Passes

Search period start: 17 February 2020 00:00
Search period end: 27 February 2020 00:00
Orbit: 764 x 766 km, 98.1° (Epoch: 17 February)

Date Brightness Start Highest point End Pass type
(mag) Time Alt. Az. Time Alt. Az. Time Alt. Az.
17 Feb 3.7 01:32:06 10° S 01:37:07 62° W 01:42:10 10° NNW visible
17 Feb 4.2 13:41:50 10° NNE 13:46:46 49° E 13:51:39 10° S visible
18 Feb 6.2 02:36:50 10° SW 02:39:46 15° W 02:42:42 10° NW visible
18 Feb 5.8 13:05:53 10° NE 13:09:47 22° E 13:13:37 10° SE visible
19 Feb 4.9 01:58:05 10° SSW 02:02:41 34° W 02:07:19 10° NNW visible
20 Feb 4.7 13:30:41 10° NNE 13:35:25 38° E 13:40:07 10° SSE visible
21 Feb 5.9 02:24:44 10° SW 02:28:21 20° W 02:32:00 10° NW visible
21 Feb 6.2 12:55:06 10° NE 12:58:22 17° E 13:01:37 10° SE visible
22 Feb 4.4 01:46:31 10° S 01:51:20 44° W 01:56:12 10° NNW visible
23 Feb 6.6 02:53:13 10° W 02:54:07 10° W 02:55:02 10° WNW visible
23 Feb 5.2 13:19:37 10° NE 13:24:04 30° E 13:28:29 10° SSE visible
24 Feb 5.5 02:12:50 10° SSW 02:16:58 25° W 02:21:07 10° NW visible
24 Feb 6.4 12:44:36 10° ENE 12:46:57 13° E 12:49:18 10° ESE visible
25 Feb 3.9 01:35:02 10° S 01:40:00 56° W 01:45:01 10° NNW visible
26 Feb 6.3 02:40:08 10° WSW 02:42:41 14° W 02:45:15 10° WNW visible
26 Feb 5.7 13:08:37 10° NE 13:12:41 24° E 13:16:43 10° SSE visible
